Location: Baggett Branch
(32.6074°N, 97.0167°W)
Time: 10:21:46
(UTC+00:00)

Cosmos 1503 Rocket - Pass Details

Date: 10 February 2026
Orbit: 748 x 787 km, 74.0° (Epoch: 8 March)

Event Time Altitude Azimuth Distance (km) Brightness Sun altitude
Rises 12:14:06 0° 208° (SSW) 3,177 7.0 -13.5°
Reaches altitude 10° 12:16:29 10° 213° (SSW) 2,259 6.2 -13.0°
Maximum altitude 12:21:28 52° 289° (WNW) 934 4.1 -11.9°
Drops below altitude 10° 12:26:31 10° 6° (N) 2,288 6.4 -10.9°
Sets 12:28:58 0° 11° (N) 3,223 7.2 -10.4°
